sat.trackr.live / text

‹ back to catalog

STARLINK-5147

NORAD 53985 · 2022-125X

PAYLOAD ACTIVE UNKNOWN

§ Identity

Operator
Country
US
Launch date
2022-10-05
Launch site
AFWTR
Launch vehicle
Mass (kg)
RCS (m²)

Purposes: comms

External: N2YO · Heavens-Above · Gunter

§ Orbital elements

Epoch: 2026-05-24T23:04:05.528640Z

Period
95.44 min
Inclination
53.2144°
Eccentricity
0.0001103
Mean motion
15.08839777 rev/d
Perigee alt
539.0 km
Apogee alt
540.5 km
Semi-major
6,917.9 km
B*
4.5501e-5
RAAN
231.9591°
Arg perigee
84.2523°
Mean anomaly
275.8595°
Rev number
20,097

§ Raw data

STARLINK-51471 53985U 22125X   26144.96117510  .00000436  00000+0  45501-4 0  99902 53985  53.2144 231.9591 0001103  84.2523 275.8595 15.08839777200974

JSON: /api/v1/satellites/53985 · /tle

For live sub-satellite position, see the globe view (requires WebGL).

§ Visibility from observer

Set your observer location to see the next 7 days of passes ≥ 10°. The values pass through the URL so the page stays shareable.

No JS? Fill the form by hand. The geolocation button needs JavaScript.